GFSNGP_con_mlcape_336.txt.gz
CAPE
0 0 0 0 0 0 0 210 41 29 6 0 323 1242 2203 2347 2108 1585 1653 1408 1091 494 405 360 150 183 536 670 997 1341 1521 1635 1672 1636 1836 1935 1976 2001 1978 1842 1483 1291 1303 1549
0 0 1 10 21 271 160 77 29 0 41 335 793 1205 1325 1410 1029 650 1001 1331 919 706 433 236 187 92 257 542 833 1212 1348 1187 1267 2054 1851 1840 1857 1872 1940 2011 2032 1977 1858 1743
0 0 0 0 6 100 772 413 234 369 704 965 1367 1412 1084 768 538 266 58 379 865 823 717 175 271 228 305 288 383 386 572 159 260 194 1047 2146 2221 2141 2104 2116 2136 2080 2040 2070
0 0 3 11 9 159 903 783 881 973 1113 1230 1212 1265 1205 649 447 398 9 84 154 32 13 0 0 13 76 18 153 470 312 87 0 26 439 682 1218 1634 1606 1546 1784 2003 2294 2521
0 0 0 132 50 214 628 924 895 790 794 774 987 1068 1255 1229 837 415 156 112 152 129 93 18 0 0 0 0 2 45 230 47 116 443 437 441 511 658 665 743 903 1101 969 995
0 0 0 90 20 6 237 458 600 710 684 863 1021 861 990 985 735 499 283 188 262 215 141 65 68 5 0 0 0 0 93 81 54 20 3 0 0 9 7 0 29 14 74 305
0 0 84 166 124 1 4 177 412 473 514 682 1002 918 926 912 754 546 368 278 269 231 344 225 65 0 23 0 0 13 18 40 5 0 243 47 0 0 0 0 0 0 0 0
99 0 5 181 132 100 201 200 234 201 161 112 63 116 232 235 459 600 594 451 335 420 426 435 160 69 136 40 0 223 477 364 515 520 257 118 4 65 0 0 0 0 0 0
114 157 46 57 88 159 88 131 101 101 133 9 7 35 15 44 83 291 411 398 312 318 375 322 129 158 267 0 26 263 202 123 13 531 411 471 353 362 408 123 109 88 0 0
0 38 4 0 0 0 0 0 0 0 0 0 1 58 70 176 234 230 201 231 242 383 465 442 433 508 490 504 570 777 705 659 752 586 346 341 216 223 312 322 278 318 220 142
0 28 0 0 0 0 0 0 0 0 0 0 0 3 4 2 141 257 273 436 488 535 582 755 817 794 659 671 1049 962 915 671 555 360 428 476 204 34 106 53 132 398 411 382
0 0 0 0 0 0 0 0 0 0 37 38 9 0 17 175 461 685 877 1048 758 884 904 897 1136 1234 1305 1401 1675 978 398 579 197 113 197 326 251 120 0 0 0 3 70 161
0 0 0 0 0 0 0 0 0 0 31 65 30 2 63 305 531 584 601 749 670 730 1109 993 1334 1524 1398 1609 1726 1386 1237 779 215 217 149 23 3 70 136 118 58 74 79 76
0 0 0 0 0 0 0 0 0 0 0 3 35 17 64 236 241 202 702 1163 1230 1440 1591 1562 1623 1444 1221 927 284 579 976 359 53 0 5 94 0 16 158 167 172 143 51 38
0 0 0 0 0 0 0 0 0 0 49 30 24 34 100 284 463 717 675 1028 1182 1257 1094 1024 1071 965 798 657 383 467 395 148 0 11 77 115 46 24 81 190 80 48 0 6
0 0 0 0 0 0 0 0 0 0 55 24 2 9 115 203 242 314 191 209 590 982 1255 975 714 428 49 0 32 441 402 409 226 102 4 22 160 124 137 51 0 19 0 3
0 0 0 0 0 0 0 0 0 6 0 0 0 0 0 0 0 0 6 133 386 1009 973 734 589 308 160 4 0 0 83 590 188 191 276 247 200 202 192 0 0 31 51 116
0 0 0 0 0 0 0 0 0 0 1 0 0 0 0 0 0 0 0 17 574 863 759 795 554 496 603 671 545 445 680 804 314 215 77 49 113 148 241 67 17 24 0 77
0 0 0 0 0 0 0 0 0 0 0 0 0 0 0 0 0 0 0 0 167 244 84 306 582 306 134 147 585 282 231 461 265 142 9 0 0 0 1 8 40 1 0 114
0 0 0 0 0 0 0 0 0 0 0 0 0 0 0 0 0 0 0 6 75 41 0 160 17 0 0 0 1 314 485 303 251 2 2 0 2 0 0 0 239 293 99 288
0 0 0 0 0 0 0 0 0 0 0 0 0 0 0 0 0 0 0 0 75 0 0 0 0 0 0 0 0 0 657 489 308 0 0 7 76 114 300 467 446 445 585 458
0 0 0 0 0 0 0 0 0 0 0 0 0 0 0 0 0 0 0 0 0 0 0 0 0 0 0 0 0 0 421 605 592 405 146 337 24 10 161 211 355 506 603 643
0 0 0 0 0 0 0 0 0 0 0 0 0 0 0 0 0 0 0 0 0 0 0 0 0 0 0 0 0 0 0 375 525 370 219 384 404 158 276 71 70 327 476 691
0 0 0 0 0 0 0 0 0 0 0 0 0 0 0 0 0 0 0 0 0 0 0 0 0 0 0 0 0 0 0 0 494 505 305 301 431 512 519 69 52 22 384 585
23 40 4 0 0 0 0 0 0 1 0 0 0 0 0 0 0 0 0 0 0 0 0 0 0 0 0 0 0 0 0 0 0 335 511 446 253 284 245 180 6 0 140 346
4 16 8 0 0 0 0 0 0 7 0 1 0 0 0 0 0 0 0 0 0 0 0 0 0 0 0 0 0 0 0 0 0 0 0 0 5 196 231 93 62 14 8 138
0 14 55 16 5 5 14 8 10 2 0 0 0 0 0 0 0 0 0 0 0 0 0 0 0 0 0 0 0 0 0 0 0 0 0 0 0 4 298 220 116 60 12 4

GFSNGP_con_mlcape_339.txt.gz
CAPE
0 0 0 0 2 0 0 109 40 197 63 281 523 914 1568 1617 1798 1471 1477 1165 863 533 302 320 284 314 515 691 1014 1290 1416 1499 1476 1623 1842 1890 1928 1866 1725 1634 1500 1204 1259 1748
0 0 0 5 259 171 167 3 81 56 260 342 669 1579 1747 1193 484 523 979 961 566 314 249 199 228 424 613 791 867 1001 1124 1324 1346 1513 1612 1750 1987 2088 2070 1976 1876 1760 1612 1334
0 0 0 0 86 308 312 87 31 66 182 438 605 1389 674 397 152 5 58 662 850 499 357 333 502 548 690 572 262 383 670 382 204 341 228 74 213 1064 1814 1722 1804 1844 1820 1866
0 0 0 44 105 351 406 118 265 443 766 394 888 1396 1053 517 124 10 20 66 49 36 65 99 258 359 336 135 154 230 340 145 14 202 76 18 169 353 858 807 876 1283 1663 1862
0 0 0 30 453 835 572 804 964 885 1110 949 1391 1234 1045 764 438 103 143 153 83 14 0 0 0 0 6 0 2 83 473 94 7 83 7 113 270 194 208 387 656 535 891 1319
0 0 0 21 1 533 845 544 736 1082 1178 1301 1129 460 534 925 645 372 164 169 171 106 10 0 0 0 0 0 0 0 0 51 41 65 12 0 0 0 0 0 0 5 45 178
0 0 0 28 131 20 51 73 616 726 961 955 774 621 819 976 777 557 399 274 224 77 65 0 0 0 0 0 0 0 0 0 4 0 0 152 97 1 0 0 0 0 0 0
1 0 0 58 25 41 33 229 510 505 506 788 789 453 526 754 855 695 631 496 405 431 445 190 116 4 0 0 0 0 44 334 289 357 248 175 32 14 57 70 12 0 0 0
28 80 13 2 42 49 65 103 75 39 15 274 12 53 208 193 588 563 540 532 503 487 430 317 306 127 182 111 7 89 133 198 249 300 720 702 378 169 231 103 36 111 159 115
1 22 30 19 13 3 9 14 0 0 0 0 0 0 0 0 10 181 177 250 225 171 259 370 321 409 388 353 404 636 586 464 468 502 259 348 334 293 226 186 280 287 268 248
0 7 0 0 0 0 0 0 0 0 0 0 5 29 69 96 136 142 174 214 360 509 538 461 548 647 547 519 856 688 551 433 211 37 235 383 253 103 107 32 43 162 301 322
0 0 0 0 0 0 0 0 0 0 0 0 0 0 23 60 127 408 606 681 558 664 707 699 863 995 905 1151 1359 437 282 406 28 170 189 95 67 60 0 0 0 0 0 107
0 0 0 0 0 0 0 0 0 0 0 0 0 26 164 317 387 371 535 493 904 1030 889 912 987 1214 1333 1561 959 930 522 215 30 8 24 60 14 131 115 1 0 0 0 1
0 0 0 0 0 0 0 0 0 3 0 0 0 71 180 238 145 200 843 989 945 918 1351 1311 1222 1216 890 470 618 652 688 185 3 0 4 64 11 40 86 31 90 65 0 3
0 0 0 0 0 0 0 0 0 0 0 0 0 76 92 87 303 407 532 805 799 898 841 613 654 533 424 494 312 481 305 133 0 0 2 21 5 14 0 92 94 31 4 2
0 0 0 0 0 0 0 0 0 0 9 0 18 116 188 296 343 121 36 86 297 548 837 457 300 109 0 0 83 416 320 126 152 266 0 8 3 43 33 37 2 0 0 2
0 0 0 0 0 0 0 0 0 11 10 0 31 111 67 23 0 0 0 6 336 742 486 317 270 191 118 0 0 10 43 237 493 115 111 214 124 71 48 66 0 0 0 7
0 0 0 0 0 0 0 0 0 0 0 0 3 5 3 0 0 0 0 11 422 213 320 351 264 259 298 385 236 229 437 547 370 205 61 45 12 13 67 115 13 0 0 0
0 0 0 0 0 0 0 0 0 0 0 0 0 8 3 0 0 0 0 0 30 0 0 200 55 0 0 0 33 34 29 363 173 57 5 0 0 0 0 3 16 33 14 0
0 0 0 0 0 0 0 0 0 0 0 0 0 0 0 0 0 0 0 0 2 0 0 54 0 0 0 0 0 15 226 140 93 15 0 0 0 0 0 0 0 31 24 0
0 0 0 0 0 0 0 0 0 0 0 0 0 0 0 0 0 0 0 0 32 0 0 0 0 0 0 0 0 0 321 283 148 0 0 4 13 11 30 129 231 141 244 219
0 0 0 0 0 0 0 0 0 0 0 0 0 0 0 0 0 0 0 0 0 0 0 0 0 0 0 0 0 0 15 254 217 144 15 47 38 0 26 18 31 138 307 370
0 0 0 0 0 0 0 0 0 0 0 0 0 0 0 0 0 0 0 0 0 0 0 0 0 0 0 0 0 0 0 0 11 136 66 84 207 159 238 234 96 28 82 360
0 0 0 0 0 0 0 0 0 0 0 0 0 0 0 0 0 0 0 0 0 0 0 0 0 0 0 0 0 0 0 0 0 88 213 108 74 158 288 286 49 73 52 186
0 0 0 0 0 0 0 0 0 0 0 0 0 0 0 0 0 0 0 0 0 0 0 0 0 0 0 0 0 0 0 0 0 0 0 89 154 55 165 278 126 66 110 170
0 0 0 0 0 0 0 0 0 0 0 0 0 0 0 0 0 0 0 0 0 0 0 0 0 0 0 0 0 0 0 0 0 0 0 0 0 0 29 108 54 12 41 107
0 0 0 0 0 0 0 0 0 0 0 6 8 0 0 0 0 0 0 0 0 0 0 0 0 0 0 0 0 0 0 0 0 0 0 0 0 0 0 15 94 55 27 13

GFSNGP_con_mlcape_342.txt.gz
CAPE
0 0 0 0 25 0 0 24 44 13 87 149 115 416 1278 1557 1234 803 832 756 548 492 341 192 98 204 296 459 614 716 765 965 1077 1232 1505 1588 1659 1662 1758 1753 1607 1512 1507 1470
0 0 0 110 101 133 49 122 36 54 151 192 390 1567 1402 564 313 234 481 738 632 328 154 211 253 271 437 574 769 964 1058 1112 1144 1160 842 597 146 0 63 698 1780 1709 1693 1650
0 0 0 34 109 181 220 69 84 113 62 406 849 1288 451 71 11 0 25 152 149 286 348 404 371 462 556 561 573 753 864 758 891 802 492 201 20 22 68 609 598 600 1080 1150
0 0 0 9 265 50 231 149 293 163 69 336 1097 1191 692 319 11 0 0 0 16 22 46 174 400 379 231 177 206 224 378 335 14 0 10 4 1 0 10 206 652 478 60 58
0 0 0 55 326 617 303 259 393 423 465 701 1396 1257 844 608 209 62 117 112 21 0 0 0 0 0 0 0 8 191 363 270 94 10 1 11 52 37 1 2 110 337 291 167
0 0 0 30 143 263 793 466 709 895 619 824 1214 266 529 833 551 192 189 135 132 70 17 2 0 0 0 0 0 0 0 0 0 35 159 154 5 0 0 0 0 0 0 0
0 0 0 0 123 51 511 165 541 1025 1082 1166 836 460 682 1012 717 421 271 136 86 80 87 44 1 0 0 0 0 0 0 0 0 0 0 0 4 59 0 0 0 0 0 0
0 0 0 3 74 26 2 24 531 881 1221 1186 878 826 805 613 577 524 429 397 119 99 99 61 34 22 2 3 0 0 0 10 76 219 162 128 125 42 0 11 34 13 0 0
11 21 0 0 2 8 99 342 448 585 643 842 727 157 214 357 692 695 594 516 398 246 106 73 80 71 103 22 0 85 241 245 116 87 118 540 515 297 246 144 59 28 45 81
0 3 11 12 15 28 38 87 30 13 52 367 264 0 46 131 190 453 399 329 144 55 37 136 108 82 104 47 12 110 399 274 270 419 89 14 249 329 305 306 207 236 250 203
0 0 0 0 0 14 3 0 0 0 0 0 0 0 0 0 2 108 117 105 172 305 404 360 286 306 297 291 367 580 293 158 66 0 95 170 153 81 90 127 167 342 288 341
0 0 0 0 0 0 0 0 0 0 0 0 0 0 5 25 48 154 243 299 381 506 549 577 525 797 599 616 824 500 30 27 64 16 48 26 12 16 0 2 0 0 1 102
0 0 0 0 0 0 0 0 0 0 0 0 0 20 57 103 282 312 358 341 741 781 900 751 637 995 1030 1079 987 732 184 157 34 0 5 50 33 77 192 21 0 0 0 0
0 0 0 0 0 0 0 0 0 0 0 0 0 6 105 260 205 194 427 820 734 608 940 1001 979 1016 814 781 879 680 634 279 15 0 0 0 21 67 164 97 63 73 0 0
0 0 0 0 0 0 0 0 0 0 0 0 1 99 211 128 94 294 779 780 618 736 458 348 323 288 335 491 416 278 303 334 6 0 26 0 0 0 7 40 117 66 9 0
0 0 0 0 0 0 0 0 0 0 0 0 3 114 80 31 185 98 86 152 272 365 495 237 105 32 0 0 3 292 316 192 112 102 223 0 0 7 25 19 29 1 0 10
0 0 0 0 0 0 0 0 0 0 0 0 0 20 63 141 59 24 9 0 121 484 342 162 159 84 104 0 0 29 52 65 47 403 179 64 91 74 36 36 62 0 0 4
0 0 0 0 0 0 0 0 0 0 0 0 0 33 40 8 0 0 0 0 158 312 310 183 117 82 51 153 81 32 128 241 383 286 131 40 0 0 0 19 108 38 0 0
0 0 0 0 0 0 0 0 0 0 0 0 0 2 5 11 0 0 0 0 4 83 4 127 0 0 0 0 0 1 6 97 132 32 4 0 0 0 0 0 0 0 0 0
0 0 0 0 0 0 0 0 0 0 0 0 0 0 0 0 0 0 0 0 0 0 0 21 0 0 0 0 0 0 2 95 107 1 0 0 0 1 10 6 0 0 0 10
0 0 0 0 0 0 0 0 0 0 0 0 0 0 0 0 0 0 0 0 0 0 0 0 0 0 0 0 0 0 17 145 90 6 0 0 0 0 0 4 5 78 245 250
0 0 0 0 0 0 0 0 0 0 0 0 0 0 0 0 0 0 0 0 0 0 0 0 0 0 0 0 0 0 0 36 44 18 0 0 33 20 7 59 14 0 5 158
0 0 0 0 0 0 0 0 0 0 0 0 0 0 0 0 0 0 0 0 0 0 0 0 0 0 0 0 0 0 0 0 0 0 19 0 4 13 14 92 10 0 0 35
0 0 0 0 0 0 0 0 0 0 0 0 0 0 0 0 0 0 0 0 0 0 0 0 0 0 0 0 0 0 0 0 0 0 0 3 6 0 0 3 0 0 0 0
0 0 0 0 0 0 0 0 0 0 0 0 0 0 0 0 0 0 0 0 0 0 0 0 0 0 0 0 0 0 0 0 0 0 0 0 0 0 0 0 42 33 5 4
0 0 0 0 0 0 0 0 0 0 0 0 0 0 0 0 0 0 0 0 0 0 0 0 0 0 0 0 0 0 0 0 0 0 0 0 0 0 0 0 0 30 20 5
0 0 0 0 0 0 0 0 0 0 0 0 0 0 0 0 0 0 0 0 0 0 0 0 0 0 0 0 0 0 0 0 0 0 0 0 0 0 0 0 0 0 20 24

GFSNGP_con_mlcape_345.txt.gz
CAPE
0 0 0 0 40 25 41 145 130 162 477 422 420 962 1347 926 706 924 922 1018 843 726 664 573 450 463 383 361 536 529 588 658 718 931 1105 1327 1537 1803 2034 2136 2069 2133 2295 2282
10 0 12 121 163 196 19 77 226 289 284 461 1233 1737 668 301 359 492 401 423 692 718 504 536 596 615 802 850 882 1163 1247 1278 1446 1558 1785 1705 1417 672 604 684 1002 1282 723 1352
21 0 0 145 165 276 430 255 323 386 355 822 1643 418 189 122 50 43 35 96 218 459 748 834 815 828 724 611 580 1149 1249 1171 1297 1140 939 175 86 93 195 423 485 720 635 386
0 0 1 13 122 152 371 200 479 265 527 1237 1150 768 436 226 24 52 124 119 182 216 220 304 233 29 48 98 288 618 728 633 208 407 434 286 71 63 96 211 285 462 921 627
0 0 0 84 238 617 530 395 726 384 641 1552 1175 688 496 315 177 292 350 278 195 119 67 42 8 2 19 3 21 351 593 629 569 432 306 216 279 242 86 106 131 167 301 493
0 0 0 1 244 433 838 389 594 894 1009 1140 1058 330 756 695 428 349 369 346 350 265 210 215 133 80 70 125 8 0 0 27 89 176 411 507 435 174 184 131 62 68 62 91
0 0 0 0 67 137 712 311 791 1073 1226 1212 762 689 967 1060 768 518 398 319 297 312 340 303 240 206 200 154 2 9 6 75 106 251 249 257 211 455 253 149 42 66 124 132
0 0 0 47 163 341 174 128 450 1175 1295 1214 1034 999 1210 1026 843 490 547 451 320 374 415 369 284 275 338 256 54 210 272 375 571 565 539 580 495 501 343 249 230 265 258 261
105 33 25 28 54 62 234 509 649 1271 1347 1462 1016 909 729 433 483 548 720 800 473 369 266 305 310 347 404 285 29 306 490 583 406 509 715 846 848 1005 852 648 396 383 519 653
47 32 52 53 126 179 243 286 297 573 894 1025 691 276 250 323 318 463 724 641 338 246 133 276 368 425 464 351 269 355 625 599 560 627 121 178 268 256 410 555 596 621 621 636
0 2 2 19 85 130 46 15 5 48 134 312 358 18 55 155 187 326 370 303 268 519 645 615 521 506 558 611 568 615 552 454 335 14 84 150 22 46 45 60 42 220 431 388
0 8 31 34 30 5 34 26 3 0 0 0 0 25 1 0 39 183 272 286 479 707 766 754 681 904 934 723 715 1000 614 197 255 32 9 94 53 89 0 0 0 0 0 9
0 0 0 0 0 0 0 0 0 0 0 0 0 31 87 119 371 380 562 586 777 607 838 1334 1010 990 1315 1266 1179 1203 1003 685 395 0 0 1 65 174 397 86 0 0 0 0
0 0 0 0 0 0 0 0 0 0 0 0 49 186 286 376 301 538 466 709 865 678 731 1097 1143 1300 1213 949 1357 1191 1046 442 527 23 0 115 69 52 134 154 187 92 1 2
0 0 0 0 0 0 0 0 0 0 0 11 78 212 279 319 333 250 599 1009 902 872 603 500 499 474 375 540 597 725 714 648 550 206 131 206 131 60 23 49 135 310 55 1
0 0 0 0 0 0 0 0 0 0 0 44 66 178 358 419 305 458 755 822 705 730 744 519 349 288 160 0 0 311 687 271 173 491 534 493 310 276 356 213 151 85 71 10
0 0 0 0 0 0 0 0 0 0 0 21 36 203 333 278 267 284 336 358 354 390 668 509 407 327 389 228 0 58 222 143 16 533 669 407 405 337 273 315 421 310 47 41
0 0 0 0 0 0 0 0 0 0 0 0 49 138 260 215 189 247 284 153 160 417 647 493 389 314 134 221 453 366 433 442 579 671 402 342 79 4 0 48 530 531 76 0
0 0 0 0 0 0 0 0 0 0 0 0 11 47 139 219 275 165 2 4 46 170 497 360 45 0 0 0 0 39 101 334 530 430 152 0 83 238 106 0 28 37 135 268
0 0 0 0 0 0 0 0 0 0 0 0 0 109 113 157 52 0 0 0 0 95 193 294 0 0 0 0 0 0 0 257 463 145 1 61 115 196 301 153 251 449 318 402
0 0 0 0 0 0 0 0 0 0 0 0 0 11 67 69 3 0 0 0 0 0 0 16 0 0 0 0 0 0 10 539 418 352 112 92 365 76 313 435 369 367 585 864
0 0 0 0 0 0 0 0 0 0 0 0 0 10 45 8 0 0 0 0 0 0 0 0 0 0 0 0 0 0 0 180 334 334 174 38 191 343 400 564 418 183 260 532
0 0 0 0 0 0 0 0 0 0 0 0 0 0 0 0 0 0 0 0 0 0 0 0 0 0 0 0 0 0 0 0 0 0 204 322 234 203 230 295 269 161 143 207
0 0 0 0 0 0 0 0 0 0 0 0 0 0 0 0 0 0 0 0 0 0 0 0 0 0 0 0 0 0 0 0 0 0 0 13 226 256 245 300 402 402 168 27
0 0 0 0 0 0 0 0 0 0 0 0 0 0 0 0 0 0 0 0 0 0 0 0 0 0 0 0 0 0 0 0 0 0 0 0 0 0 51 33 53 56 453 226
0 0 0 0 0 0 0 0 0 0 0 0 0 0 0 0 0 0 0 0 0 0 0 0 0 0 0 0 0 0 0 0 0 0 0 0 0 0 0 0 0 0 67 318
0 0 0 0 0 0 0 0 1 0 0 0 0 0 0 0 0 0 0 0 0 0 0 0 0 0 0 0 0 0 0 0 0 0 0 0 0 0 0 0 0 0 0 47